HODOYOSHI-3

Last updated on Mon Sep 21 2026 00:02:45 GMT+0000 (Coordinated Universal Time)

1 40015U 14033F 26263.43199246 .00000662 00000+0 81938-4 0 9994 2 40015 97.6535 62.7176 0033687 42.7855 317.5974 14.85565494661767
UTC large
Height (km)
Speed (km/s)
/
Latitude / Longitude
Inclination (degrees)
Orbital Period (minutes)
Azimuth
Elevation
Range (km)
Doppler Factor

Next 0 passes for location: London (51.5072 / 0.1276)

No passes found over London.
HODOYOSHI-3